Buenos Aires, Argentina

5:02 PM America en Octubre 22, 2018 (GMT +0000)
Jorge Newbery Aeroparque

Tiempo Historia de SABE - Junio, 2018

Change the Weather History Date:

Jueves, Junio 14, 2018

  Actual Average Record
Temperature  
Temperatura media 46 ° F -  
Temperatura máxima 52 ° F 59 ° F 71 ° F (2000)
Temperatura mínima 41 ° F 47 ° F 41 ° F (2018)
Degree Days  
Grados día de calefacción 18    
Moisture  
Punto de rocío 36 ° F    
Average Humidity 66    
Maximum Humidity 87    
Minimum Humidity 40    
Precipitación  
Precipitación 0.00 pul 0.08 pul - ()
Presión al nivel del mar  
Presión al nivel del mar 30.39 pul    
Viento  
Velocidad del viento 5 mph ()    
Velocidad máxima del viento 8 mph    
Max Gust Speed -    
Visibilidad 6.1 Millas    
Eventos      
Averages and records for this station are not official NWS values.
T = Trace of Precipitation, MM = Missing Value Source: Averaged Metar Reports

Daily Weather History Graph

Daily Weather History Graph

Search for Another Location

Airport or City:

Astronomía

Jun. 14, 2018 Salida Puesta
Hora real 7:58 AM ART 5:49 PM ART
Crepúsculo civil 7:30 AM ART 6:17 PM ART
Crepúsculo náutico 6:58 AM ART 6:49 PM ART
Crepúsculo astronómico 6:28 AM ART 7:19 PM ART
Luna 8:34 AM ART (6/14) 6:58 PM ART (6/14)
Horas de luz 10h 47m
Horas de luz
9h 51m
Luna nueva, 1% of the Moon is Illuminated
Jun 14
Luna nueva
Jun 20
Cuarto creciente
Jun 28
Luna llena
Jul 6
Cuarto menguante
Jul 12
Nueva

Hourly Weather History & Observations

Hora (ART) Temp. Vientos helados Punto de rocío Humedad Presión Visibilidad Wind Dir Velocidad del viento Velocidad de ráfagas Precip Eventos Condiciones
12:00 AM 46 ° F - 38 ° F 65% 30.35 pul 6 mi Oeste 5.8 mph - -   Muy nublado
12:00 AM 46.4 ° F 43.5 ° F 37.4 ° F 71% 30.33 pul 6.2 mi OSO 5.8 mph - N/A   Muy nublado
1:00 AM 44.6 ° F 41.4 ° F 39.2 ° F 81% 30.33 pul 6.2 mi SO 5.8 mph - N/A   Nublado
2:00 AM 44.6 ° F 42.2 ° F 37.4 ° F 76% 30.36 pul - OSO 4.6 mph - N/A   Despejado
3:00 AM 43 ° F - 38 ° F 76% 30.37 pul 6 mi Oeste 3.5 mph - -  
3:00 AM 42.8 ° F 41.1 ° F 37.4 ° F 81% 30.36 pul - Oeste 3.5 mph - N/A   Despejado
4:00 AM 41.0 ° F 38.0 ° F 37.4 ° F 87% 30.36 pul - OSO 4.6 mph - N/A   Despejado
5:00 AM 41.0 ° F 38.0 ° F 37.4 ° F 87% 30.36 pul 6.2 mi OSO 4.6 mph - N/A   Muy nublado
6:00 AM 43 ° F - 37 ° F 74% 30.36 pul 6 mi SO 5.8 mph - -   Parcialmente nublado
6:00 AM 42.8 ° F 39.3 ° F 37.4 ° F 81% 30.33 pul 6.2 mi SO 5.8 mph - N/A   Nubes dispersas
7:00 AM 42.8 ° F 39.3 ° F 39.2 ° F 87% 30.36 pul 6.2 mi SO 5.8 mph - N/A   Parcialmente nublado
8:00 AM 42.8 ° F 38.6 ° F 39.2 ° F 87% 30.39 pul 6.2 mi SO 6.9 mph - N/A   Parcialmente nublado
9:00 AM 44 ° F - 38 ° F 73% 30.41 pul 6 mi SO 4.6 mph - -   Parcialmente nublado
9:00 AM 44.6 ° F 42.2 ° F 39.2 ° F 81% 30.39 pul 6.2 mi OSO 4.6 mph - N/A   Nubes dispersas
10:00 AM 46.4 ° F 44.3 ° F 39.2 ° F 76% 30.42 pul 6.2 mi SO 4.6 mph - N/A   Nubes dispersas
11:00 AM 48.2 ° F - 37.4 ° F 66% 30.42 pul 6.2 mi SO 5.8 mph - N/A   Nubes dispersas
12:00 PM 50 ° F - 36 ° F 48% 30.43 pul 6 mi OSO 5.8 mph - -   Nubes dispersas
12:00 PM 50.0 ° F - 35.6 ° F 58% 30.42 pul 6.2 mi Oeste 5.8 mph - N/A   Parcialmente nublado
1:00 PM 51.8 ° F - 33.8 ° F 50% 30.39 pul 6.2 mi OSO 6.9 mph - N/A   Nubes dispersas
2:00 PM 51.8 ° F - 35.6 ° F 54% 30.36 pul 6.2 mi Oeste 8.1 mph - N/A   Nubes dispersas
3:00 PM 52 ° F - 35 ° F 40% 30.38 pul 6 mi SO 6.9 mph - -   Nubes dispersas
3:00 PM 53.6 ° F - 35.6 ° F 51% 30.36 pul 6.2 mi OSO 6.9 mph - N/A   Parcialmente nublado
4:00 PM 51.8 ° F - 35.6 ° F 54% 30.36 pul 6.2 mi SO 5.8 mph - N/A   Nubes dispersas
5:00 PM 51.8 ° F - 35.6 ° F 54% 30.39 pul 6.2 mi OSO 4.6 mph - N/A   Nubes dispersas
6:00 PM 49 ° F - 34 ° F 44% 30.41 pul 6 mi SSO 6.9 mph - -   Parcialmente nublado
6:00 PM 50.0 ° F - 33.8 ° F 54% 30.39 pul 6.2 mi SSO 6.9 mph - N/A   Nubes dispersas
7:00 PM 48.2 ° F - 33.8 ° F 58% 30.42 pul 6.2 mi SSO 4.6 mph - N/A   Nubes dispersas
8:00 PM 48.2 ° F - 35.6 ° F 62% 30.42 pul 6.2 mi SO 4.6 mph - N/A   Nubes dispersas
9:00 PM 47 ° F - 35 ° F 53% 30.45 pul 6 mi SO 3.5 mph - -   Parcialmente nublado
9:00 PM 48.2 ° F - 35.6 ° F 62% 30.45 pul 6.2 mi SO 3.5 mph - N/A   Nubes dispersas
10:00 PM 46.4 ° F 45.2 ° F 33.8 ° F 62% 30.45 pul 6.2 mi SO 3.5 mph - N/A   Parcialmente nublado
11:00 PM 46.4 ° F 45.2 ° F 33.8 ° F 62% - - OSO 3.5 mph - N/A   Despejado